GFSNE_500_temp_075.txt.gz
Temp
-17 -17 -17 -17 -17 -18 -18 -18 -18 -18 -18 -19 -19 -20 -21 -21 -22 -21 -21 -21 -21 -21 -22 -22 -23 -24 -25 -27 -28 -29 -30 -31 -31 -32 -32 -32 -32 -32
-17 -17 -17 -18 -18 -18 -18 -18 -18 -18 -18 -19 -20 -20 -21 -22 -22 -22 -22 -22 -22 -22 -22 -23 -24 -25 -27 -29 -30 -31 -31 -32 -32 -32 -32 -32 -32 -32
-17 -17 -18 -18 -18 -18 -18 -18 -19 -19 -19 -19 -20 -21 -21 -22 -22 -22 -22 -23 -23 -23 -24 -25 -26 -28 -29 -31 -31 -31 -32 -33 -33 -33 -33 -33 -33 -33
-17 -17 -17 -18 -18 -18 -18 -19 -19 -19 -20 -20 -21 -22 -22 -22 -22 -22 -23 -23 -23 -24 -24 -26 -27 -29 -30 -31 -32 -32 -33 -33 -33 -33 -34 -34 -33 -33
-17 -18 -18 -18 -18 -18 -18 -19 -20 -20 -21 -21 -21 -21 -22 -22 -22 -23 -23 -23 -24 -26 -27 -29 -30 -31 -31 -32 -32 -33 -33 -34 -34 -34 -34 -34 -34 -34
-17 -18 -18 -18 -18 -19 -19 -20 -20 -21 -21 -21 -21 -21 -22 -22 -23 -23 -23 -24 -25 -26 -28 -30 -31 -32 -32 -32 -32 -33 -34 -34 -35 -35 -35 -35 -35 -34
-18 -18 -18 -19 -19 -19 -20 -20 -21 -21 -22 -22 -22 -22 -22 -23 -24 -25 -25 -26 -26 -28 -30 -31 -32 -32 -33 -33 -33 -34 -35 -35 -35 -35 -35 -35 -35 -34
-18 -19 -19 -19 -19 -20 -20 -20 -21 -22 -22 -22 -22 -22 -22 -23 -24 -25 -26 -27 -27 -29 -31 -31 -33 -33 -33 -33 -34 -35 -35 -35 -35 -35 -36 -35 -35 -34
-19 -19 -19 -20 -20 -20 -21 -21 -22 -23 -23 -22 -22 -23 -23 -24 -25 -26 -27 -28 -29 -31 -32 -32 -34 -34 -34 -35 -35 -36 -36 -35 -36 -36 -36 -36 -35 -34
-19 -20 -20 -20 -21 -21 -21 -22 -22 -22 -23 -23 -24 -24 -25 -26 -27 -28 -29 -30 -30 -31 -32 -33 -35 -35 -35 -36 -36 -36 -36 -36 -36 -36 -36 -36 -35 -34
-20 -20 -21 -21 -21 -21 -21 -22 -22 -22 -23 -24 -25 -25 -26 -27 -28 -29 -30 -31 -31 -31 -33 -34 -36 -35 -36 -36 -36 -36 -36 -36 -36 -36 -36 -36 -35 -35
-21 -21 -21 -21 -22 -22 -22 -22 -22 -22 -23 -24 -25 -26 -27 -28 -29 -30 -31 -31 -32 -32 -35 -36 -36 -36 -36 -37 -36 -36 -36 -36 -36 -36 -36 -36 -35 -35
-21 -21 -22 -22 -22 -22 -23 -23 -23 -23 -24 -24 -26 -27 -28 -29 -30 -31 -32 -32 -32 -34 -35 -35 -36 -36 -37 -37 -36 -36 -36 -36 -36 -36 -36 -36 -36 -35
-21 -22 -22 -22 -23 -23 -23 -24 -24 -25 -26 -26 -27 -28 -29 -31 -31 -32 -32 -32 -33 -34 -35 -35 -36 -37 -37 -36 -36 -36 -36 -36 -36 -36 -36 -36 -36 -35
-22 -22 -22 -22 -23 -23 -24 -24 -25 -26 -27 -28 -29 -30 -31 -32 -32 -32 -33 -33 -34 -35 -36 -36 -37 -37 -37 -36 -36 -36 -36 -36 -36 -36 -36 -36 -36 -35
-22 -22 -23 -23 -24 -24 -25 -26 -27 -28 -29 -30 -31 -32 -32 -33 -33 -33 -33 -34 -34 -36 -37 -38 -37 -37 -37 -36 -36 -37 -36 -37 -37 -36 -36 -36 -36 -36
-23 -23 -24 -24 -25 -26 -27 -28 -29 -30 -31 -32 -32 -33 -33 -34 -34 -34 -34 -35 -35 -37 -38 -38 -38 -37 -37 -36 -37 -36 -36 -37 -37 -36 -36 -36 -36 -36
-24 -24 -24 -25 -26 -27 -28 -29 -30 -31 -32 -33 -33 -34 -34 -35 -35 -35 -36 -36 -37 -38 -38 -38 -38 -37 -37 -37 -37 -37 -36 -37 -37 -36 -36 -37 -36 -36
-24 -25 -26 -27 -28 -29 -30 -31 -32 -32 -33 -33 -34 -35 -35 -36 -37 -36 -37 -38 -38 -38 -38 -39 -38 -37 -37 -37 -37 -37 -36 -37 -37 -37 -37 -37 -36 -36
-27 -28 -28 -29 -30 -31 -32 -32 -33 -33 -34 -34 -35 -36 -36 -36 -37 -38 -38 -38 -38 -39 -39 -39 -38 -37 -37 -37 -37 -37 -37 -37 -37 -37 -37 -37 -36 -36
-28 -29 -30 -31 -31 -32 -32 -33 -33 -34 -34 -35 -36 -37 -37 -37 -38 -38 -39 -39 -39 -39 -39 -39 -38 -37 -37 -37 -37 -37 -37 -37 -37 -37 -37 -37 -36 -36
-29 -30 -31 -32 -32 -33 -33 -34 -35 -35 -36 -36 -37 -37 -38 -38 -38 -39 -39 -39 -39 -39 -39 -39 -38 -38 -38 -37 -37 -37 -37 -37 -37 -37 -37 -37 -36 -36
-31 -32 -32 -32 -33 -33 -34 -35 -36 -36 -37 -37 -38 -38 -38 -38 -38 -39 -40 -40 -40 -40 -39 -39 -38 -38 -38 -37 -37 -37 -37 -37 -37 -37 -37 -37 -37 -36

GFSNE_500_temp_081.txt.gz
Temp
-17 -16 -16 -17 -16 -17 -16 -16 -17 -17 -17 -18 -18 -18 -18 -18 -18 -19 -19 -19 -20 -20 -20 -21 -21 -21 -22 -22 -22 -22 -23 -23 -24 -24 -24 -25 -26 -27
-17 -17 -17 -17 -17 -16 -17 -17 -17 -18 -18 -18 -18 -18 -18 -19 -19 -19 -20 -20 -20 -21 -21 -22 -22 -22 -22 -22 -23 -23 -24 -24 -25 -26 -26 -27 -28 -29
-17 -17 -17 -17 -17 -17 -17 -18 -18 -18 -18 -18 -18 -18 -19 -19 -20 -20 -20 -21 -21 -21 -22 -22 -22 -23 -23 -23 -24 -24 -25 -26 -26 -28 -29 -30 -31 -31
-17 -17 -18 -17 -17 -17 -18 -18 -18 -18 -18 -18 -19 -19 -19 -20 -20 -20 -21 -21 -22 -22 -22 -23 -23 -23 -24 -24 -25 -25 -26 -27 -28 -29 -30 -31 -32 -31
-17 -18 -18 -18 -18 -18 -18 -18 -18 -18 -19 -19 -19 -20 -20 -21 -21 -21 -21 -22 -22 -22 -23 -23 -24 -24 -24 -25 -25 -26 -27 -28 -30 -31 -32 -32 -32 -32
-18 -18 -18 -18 -18 -18 -18 -19 -19 -19 -19 -19 -20 -20 -20 -21 -21 -21 -21 -22 -22 -23 -23 -24 -24 -24 -25 -26 -27 -28 -29 -30 -31 -32 -32 -32 -33 -34
-18 -18 -18 -18 -19 -19 -19 -19 -20 -20 -20 -20 -20 -20 -21 -21 -22 -22 -22 -22 -22 -23 -23 -23 -24 -25 -26 -27 -28 -29 -30 -31 -32 -33 -33 -34 -34 -34
-18 -19 -19 -19 -19 -19 -20 -20 -20 -20 -20 -20 -20 -21 -22 -22 -22 -22 -22 -22 -22 -23 -23 -23 -25 -25 -26 -28 -29 -30 -31 -32 -33 -33 -35 -36 -35 -35
-19 -19 -19 -19 -19 -20 -20 -20 -20 -20 -20 -21 -21 -22 -22 -22 -22 -22 -23 -23 -23 -24 -24 -24 -25 -26 -27 -29 -30 -31 -32 -33 -33 -34 -35 -36 -36 -36
-19 -19 -19 -19 -19 -20 -19 -20 -20 -20 -21 -21 -21 -22 -22 -23 -23 -23 -23 -23 -24 -24 -25 -25 -27 -27 -29 -30 -31 -32 -33 -33 -34 -35 -36 -36 -36 -36
-19 -19 -20 -20 -20 -20 -20 -20 -21 -21 -22 -22 -22 -23 -23 -23 -24 -24 -24 -24 -24 -25 -27 -28 -28 -29 -30 -31 -32 -33 -33 -34 -35 -36 -36 -37 -37 -36
-20 -20 -20 -20 -20 -20 -21 -21 -22 -22 -23 -23 -23 -24 -24 -24 -25 -25 -26 -26 -27 -27 -28 -29 -30 -31 -31 -32 -33 -34 -34 -35 -36 -37 -37 -37 -36 -36
-20 -20 -20 -20 -21 -21 -22 -22 -23 -23 -23 -23 -23 -24 -24 -25 -26 -26 -27 -28 -28 -29 -30 -31 -30 -32 -32 -33 -34 -34 -35 -36 -36 -37 -37 -37 -36 -36
-20 -20 -20 -21 -21 -22 -22 -23 -23 -23 -23 -23 -24 -24 -25 -26 -26 -27 -28 -29 -30 -30 -31 -32 -32 -33 -34 -34 -35 -35 -36 -37 -37 -37 -37 -36 -37 -37
-20 -21 -21 -22 -22 -22 -23 -23 -23 -23 -24 -24 -25 -25 -26 -26 -27 -28 -29 -30 -30 -31 -32 -32 -33 -34 -35 -35 -36 -36 -37 -38 -38 -37 -37 -37 -37 -37
-21 -22 -22 -22 -23 -23 -23 -23 -24 -24 -25 -25 -26 -26 -27 -28 -29 -30 -30 -31 -31 -32 -33 -34 -34 -35 -36 -36 -37 -38 -38 -38 -38 -37 -37 -37 -37 -37
-22 -22 -22 -23 -23 -23 -24 -24 -25 -25 -26 -27 -27 -28 -29 -29 -30 -31 -31 -32 -32 -33 -34 -35 -36 -36 -37 -37 -38 -39 -38 -38 -37 -37 -37 -37 -37 -37
-22 -23 -23 -23 -24 -24 -24 -25 -26 -27 -27 -28 -29 -30 -30 -31 -31 -32 -32 -33 -33 -34 -35 -36 -37 -37 -38 -39 -39 -39 -39 -38 -38 -37 -37 -37 -37 -37
-23 -23 -24 -24 -24 -25 -26 -26 -27 -28 -29 -30 -30 -31 -31 -32 -32 -33 -33 -34 -34 -35 -37 -38 -39 -39 -39 -39 -39 -39 -39 -38 -38 -38 -38 -37 -37 -37
-24 -24 -25 -25 -26 -27 -27 -28 -29 -30 -30 -31 -32 -32 -32 -33 -33 -34 -34 -35 -36 -37 -38 -38 -39 -39 -39 -39 -39 -39 -39 -38 -38 -38 -37 -37 -37 -37
-24 -25 -26 -27 -28 -29 -29 -30 -31 -31 -32 -32 -33 -33 -33 -34 -34 -35 -35 -36 -37 -38 -39 -39 -39 -39 -39 -39 -39 -39 -39 -38 -38 -38 -38 -37 -37 -37
-25 -26 -27 -28 -29 -30 -31 -32 -32 -32 -33 -33 -34 -34 -35 -35 -36 -36 -37 -38 -38 -39 -39 -39 -39 -40 -40 -40 -39 -39 -39 -39 -38 -38 -38 -38 -37 -37
-27 -28 -29 -30 -31 -32 -32 -33 -33 -34 -34 -35 -35 -36 -36 -37 -38 -38 -39 -39 -39 -39 -39 -40 -39 -40 -40 -40 -39 -39 -39 -39 -38 -38 -38 -38 -37 -37

GFSNE_500_temp_084.txt.gz
Temp
-16 -16 -17 -17 -16 -16 -17 -17 -17 -17 -17 -17 -18 -18 -18 -18 -19 -19 -19 -19 -19 -19 -19 -20 -20 -20 -21 -21 -21 -22 -22 -22 -23 -23 -23 -23 -23 -23
-15 -16 -17 -17 -17 -17 -17 -17 -17 -17 -17 -17 -18 -18 -18 -19 -19 -19 -19 -19 -19 -20 -20 -20 -21 -21 -21 -22 -22 -22 -23 -23 -23 -23 -23 -24 -25 -25
-16 -16 -16 -17 -17 -17 -17 -18 -18 -18 -18 -18 -18 -18 -19 -19 -19 -19 -19 -19 -20 -21 -21 -21 -22 -22 -22 -22 -23 -23 -23 -23 -24 -24 -25 -26 -27 -27
-16 -16 -17 -17 -17 -17 -18 -18 -18 -18 -18 -18 -19 -19 -19 -19 -20 -20 -20 -21 -21 -21 -22 -22 -22 -22 -23 -23 -24 -24 -24 -24 -25 -25 -26 -28 -29 -30
-16 -17 -17 -17 -18 -18 -18 -18 -18 -18 -19 -19 -19 -19 -20 -20 -20 -20 -20 -21 -21 -22 -22 -23 -23 -23 -23 -24 -24 -24 -25 -25 -26 -27 -28 -29 -30 -31
-17 -17 -17 -18 -18 -19 -19 -18 -19 -19 -19 -19 -19 -20 -20 -20 -21 -21 -21 -21 -22 -22 -23 -23 -23 -24 -24 -24 -25 -25 -25 -26 -27 -28 -29 -30 -31 -32
-17 -18 -18 -19 -19 -18 -18 -19 -19 -20 -20 -20 -20 -20 -21 -21 -21 -21 -21 -21 -22 -23 -23 -23 -24 -24 -25 -25 -25 -26 -26 -27 -28 -29 -30 -31 -32 -33
-18 -18 -19 -18 -19 -19 -19 -20 -20 -20 -20 -20 -21 -21 -21 -21 -21 -22 -22 -22 -22 -23 -23 -23 -24 -24 -25 -25 -26 -26 -26 -27 -28 -29 -30 -31 -32 -33
-18 -18 -18 -19 -19 -19 -20 -20 -20 -20 -20 -20 -21 -21 -21 -22 -22 -22 -23 -23 -23 -23 -24 -23 -25 -24 -25 -25 -26 -26 -27 -28 -29 -30 -31 -33 -33 -34
-18 -19 -19 -19 -19 -20 -20 -20 -20 -20 -20 -21 -21 -22 -22 -22 -23 -23 -23 -23 -23 -24 -25 -24 -25 -25 -26 -26 -27 -27 -28 -29 -30 -31 -32 -33 -34 -35
-18 -18 -19 -19 -20 -20 -20 -20 -20 -21 -21 -21 -22 -22 -22 -23 -23 -23 -24 -24 -24 -24 -25 -25 -26 -26 -27 -27 -28 -29 -30 -30 -31 -32 -33 -34 -35 -36
-19 -19 -20 -20 -19 -20 -20 -20 -21 -21 -21 -22 -22 -22 -23 -23 -24 -24 -24 -25 -25 -25 -26 -27 -27 -28 -28 -29 -30 -30 -31 -31 -32 -33 -34 -35 -36 -36
-19 -20 -19 -19 -20 -20 -20 -21 -21 -21 -22 -22 -23 -23 -24 -24 -25 -25 -26 -26 -27 -27 -28 -29 -28 -30 -30 -30 -31 -32 -32 -33 -34 -35 -35 -36 -37 -37
-19 -19 -20 -20 -20 -20 -21 -21 -22 -22 -22 -23 -23 -24 -24 -25 -25 -26 -27 -27 -28 -28 -29 -30 -30 -31 -31 -32 -32 -33 -33 -34 -35 -36 -37 -37 -37 -37
-20 -20 -20 -20 -21 -21 -21 -22 -22 -22 -23 -23 -24 -24 -25 -25 -26 -27 -28 -28 -29 -30 -30 -31 -31 -32 -32 -33 -33 -33 -34 -35 -36 -37 -38 -38 -38 -37
-20 -20 -21 -21 -21 -21 -21 -22 -23 -23 -24 -24 -24 -25 -26 -26 -27 -28 -29 -29 -30 -30 -31 -32 -33 -33 -33 -34 -34 -35 -36 -36 -37 -38 -38 -38 -37 -37
-21 -21 -21 -21 -22 -22 -23 -23 -23 -24 -24 -25 -25 -26 -27 -28 -29 -29 -30 -30 -31 -31 -31 -33 -33 -34 -34 -34 -35 -37 -37 -38 -39 -39 -39 -38 -38 -37
-21 -22 -22 -23 -23 -23 -23 -24 -24 -25 -25 -26 -27 -28 -29 -30 -30 -31 -31 -31 -32 -32 -32 -33 -34 -35 -35 -36 -37 -38 -39 -39 -39 -39 -39 -38 -38 -37
-22 -22 -23 -23 -23 -24 -24 -24 -25 -26 -27 -28 -29 -30 -31 -31 -31 -32 -32 -32 -33 -33 -34 -34 -35 -36 -37 -38 -39 -39 -39 -39 -39 -39 -39 -38 -38 -37
-23 -23 -23 -23 -24 -24 -25 -26 -27 -29 -30 -30 -31 -31 -32 -32 -32 -33 -33 -33 -34 -34 -35 -36 -36 -37 -38 -39 -39 -39 -39 -39 -39 -39 -39 -38 -38 -38
-23 -23 -24 -24 -25 -26 -27 -29 -29 -30 -31 -32 -32 -32 -33 -33 -34 -34 -34 -35 -35 -35 -36 -37 -38 -39 -39 -39 -39 -39 -39 -39 -39 -39 -39 -38 -38 -38
-24 -24 -25 -26 -27 -28 -29 -30 -31 -32 -32 -33 -33 -34 -34 -35 -35 -36 -36 -36 -37 -37 -38 -39 -39 -40 -40 -39 -39 -39 -39 -40 -39 -39 -39 -38 -38 -38
-25 -26 -27 -28 -30 -30 -31 -31 -32 -33 -34 -34 -35 -35 -36 -37 -37 -38 -38 -39 -39 -39 -39 -40 -39 -40 -39 -39 -40 -40 -40 -40 -39 -39 -39 -38 -38 -38

GFSNE_500_temp_087.txt.gz
Temp
-16 -17 -16 -16 -16 -15 -16 -17 -17 -17 -16 -17 -17 -17 -17 -18 -18 -18 -18 -18 -19 -19 -19 -19 -19 -20 -20 -20 -21 -21 -21 -21 -21 -22 -22 -22 -22 -23
-15 -15 -16 -16 -16 -16 -15 -17 -17 -17 -17 -17 -17 -18 -18 -18 -18 -18 -18 -19 -19 -19 -19 -20 -20 -20 -20 -20 -21 -21 -22 -22 -22 -22 -23 -23 -23 -24
-15 -16 -16 -15 -16 -16 -16 -17 -17 -18 -18 -18 -18 -18 -18 -18 -18 -18 -19 -19 -19 -20 -20 -20 -20 -21 -21 -21 -22 -22 -22 -22 -23 -23 -23 -24 -24 -25
-16 -16 -16 -16 -16 -16 -17 -17 -17 -18 -18 -18 -18 -18 -18 -19 -19 -19 -19 -20 -20 -20 -20 -20 -21 -21 -22 -22 -22 -22 -23 -23 -23 -23 -24 -24 -25 -26
-16 -15 -16 -16 -16 -16 -17 -17 -18 -18 -18 -18 -18 -18 -19 -19 -19 -19 -20 -20 -20 -20 -21 -21 -22 -22 -22 -23 -23 -23 -23 -23 -24 -24 -25 -26 -26 -27
-16 -16 -16 -16 -17 -17 -18 -17 -18 -18 -19 -19 -19 -19 -19 -20 -20 -20 -20 -20 -21 -21 -21 -22 -22 -23 -23 -23 -23 -24 -24 -24 -24 -25 -26 -26 -27 -27
-16 -16 -17 -17 -17 -18 -18 -18 -18 -19 -18 -19 -19 -20 -20 -20 -20 -20 -21 -21 -21 -22 -22 -23 -23 -23 -24 -24 -24 -24 -25 -25 -26 -26 -27 -27 -27 -28
-16 -17 -17 -17 -17 -17 -18 -18 -19 -19 -19 -20 -20 -20 -20 -21 -21 -21 -21 -21 -21 -22 -23 -23 -24 -24 -24 -24 -25 -25 -25 -26 -26 -27 -27 -27 -28 -29
-17 -17 -18 -18 -18 -19 -19 -19 -19 -20 -20 -20 -20 -20 -21 -21 -21 -21 -21 -21 -22 -22 -22 -22 -24 -24 -24 -24 -25 -26 -26 -27 -27 -28 -28 -28 -29 -30
-18 -18 -18 -18 -19 -19 -19 -20 -20 -20 -20 -20 -20 -20 -21 -21 -21 -21 -22 -22 -22 -22 -23 -22 -24 -24 -24 -25 -26 -27 -27 -27 -28 -28 -28 -29 -30 -31
-18 -18 -18 -19 -19 -20 -19 -20 -20 -20 -20 -20 -21 -21 -21 -21 -21 -21 -22 -22 -22 -23 -24 -24 -24 -24 -25 -26 -27 -28 -29 -29 -28 -29 -30 -30 -31 -32
-18 -19 -19 -19 -19 -19 -19 -20 -20 -20 -20 -20 -21 -21 -21 -21 -22 -22 -22 -23 -23 -23 -24 -25 -25 -26 -26 -28 -28 -29 -29 -29 -30 -30 -31 -31 -32 -33
-19 -19 -19 -19 -20 -20 -20 -20 -20 -20 -20 -21 -21 -21 -21 -22 -22 -23 -23 -24 -24 -25 -26 -26 -26 -28 -29 -29 -29 -30 -30 -31 -31 -32 -32 -33 -33 -35
-19 -19 -20 -20 -20 -20 -20 -20 -20 -21 -21 -21 -21 -22 -22 -23 -23 -24 -24 -24 -25 -26 -28 -28 -29 -30 -30 -30 -30 -31 -32 -32 -32 -33 -33 -34 -35 -36
-19 -20 -20 -20 -20 -20 -21 -21 -21 -21 -22 -22 -22 -23 -23 -24 -24 -25 -25 -26 -27 -29 -30 -30 -31 -31 -31 -31 -32 -32 -32 -33 -33 -34 -35 -36 -37 -37
-20 -20 -20 -20 -21 -21 -21 -21 -21 -22 -22 -22 -23 -23 -24 -25 -25 -26 -27 -28 -29 -30 -31 -31 -32 -32 -32 -32 -33 -33 -33 -34 -34 -35 -36 -37 -38 -38
-20 -20 -20 -21 -21 -21 -21 -22 -22 -22 -23 -23 -24 -24 -25 -26 -27 -28 -29 -30 -30 -31 -31 -32 -32 -33 -33 -33 -33 -34 -34 -35 -36 -37 -38 -39 -39 -38
-21 -21 -21 -21 -21 -22 -22 -23 -23 -23 -24 -24 -25 -25 -26 -28 -29 -30 -31 -31 -32 -32 -32 -33 -33 -34 -34 -34 -34 -35 -36 -36 -37 -38 -39 -39 -39 -38
-21 -21 -22 -22 -22 -23 -23 -23 -23 -24 -24 -26 -27 -29 -30 -31 -31 -32 -32 -33 -33 -33 -34 -34 -34 -34 -34 -35 -36 -36 -37 -38 -39 -39 -39 -39 -39 -38
-22 -22 -22 -22 -22 -22 -23 -23 -24 -25 -27 -28 -30 -31 -31 -32 -32 -33 -34 -34 -34 -35 -35 -35 -35 -35 -36 -36 -36 -38 -39 -39 -39 -39 -39 -39 -39 -38
-22 -22 -22 -22 -22 -23 -24 -25 -26 -28 -29 -30 -31 -31 -32 -33 -34 -35 -35 -36 -36 -36 -37 -37 -37 -37 -37 -38 -38 -39 -39 -39 -39 -39 -39 -39 -39 -38
-22 -22 -23 -23 -24 -25 -26 -28 -29 -30 -30 -31 -32 -33 -34 -35 -36 -37 -37 -38 -38 -39 -39 -39 -39 -39 -39 -39 -39 -39 -39 -39 -39 -39 -39 -39 -39 -39
-23 -24 -25 -26 -27 -28 -29 -30 -31 -32 -32 -34 -35 -36 -37 -38 -38 -39 -39 -40 -40 -40 -40 -40 -40 -40 -40 -40 -40 -39 -39 -39 -39 -39 -39 -39 -39 -38

GFSNE_500_temp_093.txt.gz
Temp
-15 -15 -15 -15 -15 -15 -15 -15 -15 -15 -15 -15 -15 -16 -16 -16 -16 -16 -17 -17 -17 -17 -17 -18 -18 -18 -18 -18 -18 -18 -18 -19 -19 -19 -20 -20 -20 -20
-15 -15 -15 -15 -15 -15 -15 -15 -15 -15 -14 -15 -15 -16 -16 -16 -16 -16 -17 -17 -17 -18 -18 -17 -18 -18 -18 -18 -19 -19 -19 -19 -19 -20 -20 -20 -20 -20
-15 -15 -15 -15 -15 -15 -15 -15 -15 -16 -16 -15 -15 -16 -16 -16 -17 -16 -17 -17 -17 -18 -18 -18 -19 -18 -18 -19 -19 -19 -20 -20 -20 -20 -20 -20 -21 -21
-15 -15 -15 -16 -15 -15 -15 -16 -16 -16 -16 -16 -16 -16 -16 -17 -17 -17 -17 -18 -18 -18 -18 -18 -19 -19 -19 -19 -20 -20 -20 -20 -20 -21 -21 -21 -21 -22
-15 -15 -15 -15 -15 -16 -16 -16 -16 -16 -16 -16 -16 -16 -17 -17 -18 -18 -17 -18 -18 -19 -19 -19 -19 -20 -20 -20 -20 -20 -20 -21 -21 -21 -21 -22 -22 -22
-15 -15 -15 -15 -15 -16 -16 -16 -16 -17 -17 -17 -17 -17 -17 -18 -18 -18 -18 -18 -18 -19 -19 -19 -19 -20 -20 -20 -20 -21 -21 -21 -21 -22 -22 -22 -23 -23
-16 -15 -16 -16 -16 -16 -16 -16 -16 -17 -17 -17 -17 -17 -17 -17 -18 -18 -18 -19 -19 -20 -20 -20 -19 -20 -20 -21 -21 -21 -22 -22 -22 -22 -23 -23 -23 -24
-16 -16 -16 -16 -16 -17 -17 -17 -17 -17 -17 -18 -18 -17 -17 -18 -18 -18 -19 -19 -19 -20 -20 -20 -21 -21 -21 -21 -22 -22 -22 -22 -22 -23 -23 -23 -24 -24
-16 -16 -16 -16 -17 -17 -17 -17 -18 -18 -18 -18 -18 -18 -19 -19 -19 -20 -20 -20 -20 -20 -21 -20 -21 -21 -21 -21 -22 -22 -22 -22 -23 -23 -23 -24 -25 -25
-17 -17 -17 -17 -17 -17 -17 -17 -18 -18 -18 -18 -18 -19 -19 -19 -19 -20 -20 -20 -20 -21 -21 -21 -21 -22 -22 -22 -22 -22 -22 -23 -24 -24 -25 -25 -26 -27
-17 -18 -18 -18 -18 -18 -18 -18 -19 -19 -18 -19 -19 -19 -20 -20 -20 -20 -20 -21 -21 -21 -22 -22 -21 -22 -22 -22 -22 -23 -23 -24 -25 -26 -26 -27 -28 -29
-18 -17 -17 -17 -17 -18 -19 -19 -19 -20 -20 -20 -20 -20 -20 -20 -21 -21 -21 -21 -22 -21 -22 -22 -22 -22 -22 -22 -23 -24 -25 -26 -27 -28 -28 -29 -30 -30
-18 -17 -17 -18 -18 -19 -20 -20 -20 -20 -20 -20 -20 -21 -21 -21 -21 -21 -21 -21 -21 -21 -22 -22 -22 -23 -23 -23 -23 -25 -27 -28 -29 -29 -30 -30 -31 -32
-18 -18 -18 -19 -19 -19 -20 -20 -20 -20 -20 -20 -21 -21 -21 -21 -21 -21 -21 -21 -22 -22 -22 -23 -23 -24 -25 -25 -26 -27 -29 -30 -30 -31 -32 -32 -33 -32
-18 -18 -19 -19 -19 -20 -20 -20 -20 -20 -21 -21 -21 -21 -21 -21 -21 -21 -21 -21 -22 -22 -23 -24 -25 -26 -27 -28 -29 -29 -30 -31 -32 -33 -33 -34 -34 -34
-19 -20 -20 -20 -20 -20 -21 -20 -21 -21 -21 -21 -21 -21 -21 -21 -21 -21 -22 -22 -23 -24 -25 -26 -28 -29 -29 -30 -31 -32 -33 -33 -34 -34 -35 -34 -35 -35
-20 -20 -20 -21 -21 -21 -21 -21 -21 -21 -21 -21 -21 -21 -21 -21 -22 -22 -23 -24 -25 -26 -27 -29 -30 -31 -32 -32 -33 -34 -34 -35 -35 -36 -36 -35 -36 -36
-21 -21 -21 -21 -21 -21 -21 -21 -21 -21 -21 -21 -21 -21 -22 -22 -23 -25 -26 -27 -28 -29 -30 -31 -32 -33 -34 -34 -35 -36 -36 -36 -36 -36 -36 -36 -37 -38
-21 -21 -21 -21 -21 -21 -22 -22 -22 -21 -21 -22 -22 -23 -24 -25 -27 -28 -29 -30 -31 -32 -33 -34 -35 -35 -35 -36 -37 -38 -37 -38 -38 -38 -38 -38 -39 -39
-21 -21 -21 -21 -22 -22 -22 -22 -21 -22 -22 -23 -24 -26 -28 -30 -31 -32 -32 -32 -33 -34 -35 -36 -37 -37 -38 -38 -38 -40 -39 -39 -38 -38 -38 -39 -39 -39
-21 -21 -22 -22 -22 -22 -22 -22 -22 -23 -25 -26 -28 -30 -31 -33 -33 -34 -34 -35 -36 -37 -38 -39 -39 -39 -39 -40 -40 -40 -39 -39 -39 -39 -39 -39 -39 -39
-22 -22 -22 -22 -22 -22 -22 -23 -25 -26 -28 -30 -31 -33 -34 -35 -36 -36 -37 -38 -39 -39 -40 -40 -40 -41 -41 -41 -41 -40 -39 -40 -40 -40 -39 -39 -39 -39
-22 -22 -22 -22 -22 -23 -25 -26 -28 -30 -32 -33 -34 -35 -36 -37 -37 -38 -39 -39 -40 -40 -41 -41 -41 -41 -41 -41 -41 -40 -40 -40 -40 -39 -39 -39 -39 -39